Starlink 31368

operational
NORAD ID: 58970 Int'l Des: 2024-031 Owner: SPXS Country: US Constellation: starlink
LEOCIRCULAR

About Starlink 31368

Description loading...

Live Position

Loading 3D Globe...

Upcoming Passes

Altitude History

Altitude vs Time

uPlot chart will show altitude changes over time

Two-Line Element Set

1 58970U 24031F 25305.65123890 .00000716 00000-0 36297-4 0 9993
2 58970 53.1592 171.1636 0001079 75.6202 284.4919 15.30191258 96939
Epoch: Nov 1, 2025 • Age: 14 hours

Current Status

Altitude 492.7 km
Velocity 7.62 km/s
Sub-Earth Point -48.62°S, 74.29°W
Launch Date Feb 15, 2024
Age 1.7 years
Type internet

Technical Details

Classification Payload
Mass 730.00 kg
Dry Mass 700.00 kg
Total Mass 730.00 kg
Length 0.30 m
Diameter 4.10 m
Span 29.00 m
Shape Box + pan
Manufacturer SPXS
Bus Type Starlink V2M
Phase Status In Orbit
Owner/State SPXS/US

Large Constellations

Loading constellations...